User: anonymous   Login
Location: Unspecified
(0.0000°N, 0.0000°E)
Time: 06:57:48
(UTC+00:00)
Language:

FORMOSAT 3A - Orbit

View from above orbital plane
View from above orbital plane
View from above satellite
View from above satellite

Ground track
Ground track

The orbit data is extracted from the following two-line orbital elements,

1 29047U 06011A   17202.77845704 +.00000050 +00000-0 +35807-4 0  9996
2 29047 071.9799 116.6074 0048944 092.7500 267.9240 14.28589384589704
Epoch (UTC): 21 July 2017 18:40:58
Eccentricity: 0.0048944
inclination: 71.9799°
perigee height: 761 km
apogee height: 831 km
right ascension of ascending node: 116.6074°
argument of perigee: 92.7500°
revolutions per day: 14.28589384
mean anomaly at epoch: 267.9240°
orbit number at epoch: 58970

The dashed part of the orbit path shows where the satellite is in the earth's shadow,  

DLR